Content
SEND FEEDBACK

Daily
Averages
Monthly
Summary
United States of America

ALPINE MEADOWS, CALIFORNIA


Home > North America > United States > California
Elevation: 6230 feet     Latitude: 39 12N     Longitude: 120 14W

WEATHER
 
SELECT A DAY
Number of Records: 287,501;   Date Range: 1/1/95 - 10/20/14
 
SHARE

PRINT THIS DATA

[ ← Previous Day ]
WEATHER ALMANAC - SEPTEMBER 26, 2013
[ Next Day → ]
[ °C ]   °F
Weather ElementAverageHighLow
Temperature33.3 °F46.4 °F (4:50 pm)24.8 °F (3:35 am)
Dewpoint25.8 °F33.8 °F (9:45 am)21.2 °F (4:50 pm)
Humidity77.6 %100 % (1:35 am)37 % (4:50 pm)
Barometer30.00 in30.13 in (11:55 pm)29.91 in (12:35 am)
Wind Speed3.7 mph15 mph (4:50 pm)
Wind Gust18.4 mph (4:50 pm)
Weather ElementAverage
Visibility7.8 mi
Wind DirectionENE (69.6 °)

Weather ElementTotal
Precipitation---
Heating Degree Days29.4 (Base 65)
Averaged from 49 records on September 26, 2013
WEATHER CONDITIONS BREAKOUT
WIND DIRECTION BREAKOUT
WEATHER BY HOUR - SEPTEMBER 26, 2013
[ °C ]   °F
Local TimeTemperatureDewpointHumidityBarometerVisibilityWind DirectionWind SpeedGust SpeedPrecipitationEventsConditions
12:35 AM32.0 °F30.2 °F93 %29.91 in10.0 miCalmPartly Cloudy
12:55 AM32.0 °F30.2 °F93 %29.91 in10.0 miCalmClear
1:15 AM30.2 °F28.4 °F93 %29.91 in4.0 miCalmScattered Clouds
1:35 AM28.4 °F28.4 °F100 %29.91 in1.2 miCalmOvercast
1:55 AM28.4 °F28.4 °F100 %29.91 in0.5 miWest (280°)3.5 mphFogLight Freezing Fog
2:15 AM28.4 °F26.6 °F93 %29.92 in0.5 miCalmFogLight Freezing Fog
2:35 AM28.4 °F28.4 °F100 %29.91 in0.8 miCalmOvercast
2:55 AM28.4 °F28.4 °F100 %29.91 in4.0 miEast (90°)3.5 mphPartly Cloudy
3:15 AM28.4 °F28.4 °F100 %29.91 in0.2 miCalmFogLight Freezing Fog
3:35 AM24.8 °F24.8 °F100 %29.91 in0.2 miCalmFogLight Freezing Fog
3:55 AM26.6 °F26.6 °F100 %29.92 in0.2 miCalmFogLight Freezing Fog
4:15 AM26.6 °F24.8 °F93 %29.92 in0.2 miSE (130°)4.6 mphFogLight Freezing Fog
4:35 AM26.6 °F26.6 °F100 %29.93 in0.5 miCalmFogLight Freezing Fog
4:55 AM26.6 °F26.6 °F100 %29.93 in0.5 miSouth (180°)4.6 mphFogLight Freezing Fog
5:15 AM28.4 °F26.6 °F93 %29.94 in10.0 miSW (220°)3.5 mphOvercast
5:35 AM28.4 °F28.4 °F100 %29.94 in10.0 miCalmOvercast
5:55 AM28.4 °F28.4 °F100 %29.94 in10.0 miCalmOvercast
6:15 AM28.4 °F28.4 °F100 %29.94 in10.0 miCalmOvercast
6:35 AM28.4 °F28.4 °F100 %29.94 in10.0 miCalmOvercast
6:55 AM30.2 °F28.4 °F93 %29.94 in10.0 miCalmOvercast
7:50 AM32.0 °F30.2 °F93 %29.94 in10.0 miWSW (240°)3.5 mphOvercast
8:45 AM32.0 °F28.4 °F87 %29.96 in10.0 miWNW (300°)3.5 mphOvercast
9:45 AM35.6 °F33.8 °F93 %29.97 in10.0 miSW (230°)3.5 mphScattered Clouds
10:55 AM39.2 °F28.4 °F65 %29.98 in10.0 miEast (80°)4.6 mphMostly Cloudy
11:50 AM41.0 °F28.4 °F61 %29.98 in10.0 miSouth (180°)3.5 mphOvercast
12:55 PM44.6 °F24.8 °F46 %29.99 in10.0 miNNE (20°)10.4 mphMostly Cloudy
1:45 PM44.6 °F24.8 °F46 %29.98 in10.0 miNE (40°)11.5 mph17.3 mphMostly Cloudy
2:55 PM44.6 °F23.0 °F43 %29.99 in10.0 miNE (40°)10.4 mphMostly Cloudy
3:50 PM44.6 °F23.0 °F43 %30.00 in10.0 miNE (40°)11.5 mph17.3 mphMostly Cloudy
4:50 PM46.4 °F21.2 °F37 %30.01 in10.0 miNorth (10°)15.0 mph18.4 mphMostly Cloudy
5:55 PM44.6 °F23.0 °F43 %30.02 in10.0 miNNE (20°)13.8 mphOvercast
6:15 PM42.8 °F24.8 °F49 %30.02 in10.0 miNE (40°)10.4 mphMostly Cloudy
6:35 PM41.0 °F23.0 °F49 %30.03 in10.0 miNNE (30°)8.1 mphPartly Cloudy
6:55 PM41.0 °F23.0 °F49 %30.04 in10.0 miNNE (20°)8.1 mphClear
7:15 PM39.2 °F23.0 °F52 %30.05 in10.0 miNNE (30°)6.9 mphClear
7:35 PM39.2 °F24.8 °F56 %30.06 in10.0 miNorth (10°)5.8 mphClear
7:55 PM39.2 °F23.0 °F52 %30.07 in10.0 miENE (60°)5.8 mphClear
8:15 PM37.4 °F24.8 °F60 %30.07 in10.0 miENE (60°)4.6 mphClear
8:35 PM35.6 °F24.8 °F65 %30.08 in10.0 miCalmClear
8:55 PM35.6 °F23.0 °F60 %30.09 in10.0 miCalmClear
9:15 PM32.0 °F23.0 °F69 %30.09 in10.0 miSSW (210°)3.5 mphClear
9:35 PM32.0 °F23.0 °F69 %30.10 in10.0 miWSW (250°)3.5 mphClear
9:55 PM32.0 °F23.0 °F69 %30.11 in10.0 miEast (90°)3.5 mphClear
10:15 PM28.4 °F23.0 °F80 %30.11 in10.0 miSSE (160°)4.6 mphClear
10:35 PM30.2 °F23.0 °F75 %30.11 in10.0 miCalmClear
10:55 PM26.6 °F23.0 °F86 %30.12 in10.0 miSE (140°)3.5 mphClear
11:15 PM26.6 °F23.0 °F86 %30.12 in10.0 miSSW (210°)3.5 mphClear
11:35 PM28.4 °F23.0 °F80 %30.12 in10.0 miCalmClear
11:55 PM26.6 °F23.0 °F86 %30.13 in10.0 miCalmClear
Hourly data recorded from KTRK, located miles away from Alpine Meadows, California







STORIES FROM OUR PARTNERS